User: anonymous   Login
Location: Montr�al
(45.5000°N, 73.5830°W)
Time: 14:18:00
(UTC-05:00)
Language:

Cosmos 2369 - Orbit

View from above orbital plane
View from above orbital plane
View from above satellite
View from above satellite

Ground track
Ground track

The orbit data is extracted from the following two-line orbital elements,

1 26069U 00006A   15060.20378779  .00000349  00000-0  21119-3 0  9997
2 26069 070.9972 316.5444 0009894 058.1890 111.5891 14.13287588777584
Epoch (UTC): 01 March 2015 04:53:27
Eccentricity: 0.0009894
inclination: 70.9972°
perigee height: 841 km
apogee height: 855 km
right ascension of ascending node: 316.5444°
argument of perigee: 58.1890°
revolutions per day: 14.13287588
mean anomaly at epoch: 111.5891°
orbit number at epoch: 77758

The dashed part of the orbit path shows where the satellite is in the earth's shadow,  

DLR